Погода в Олхе

Россия / Иркутская область     52°09′42″N   104°06′50″E
темп.,
°C
ветер,
м/с
пор.,
м/с
влажн.,
%
обл.,
%
осадки,
мм/ч
давл.,
гПа
погр.,
м
6 мая, чт
чт623:000з25695 0.0 1021110
02:00−1з23745 0.0 102159
05:00−1юз116997 0.0 102114
08:00+3ю2351100 0.0 1019250
11:00+8ююз3429100 0.0 10151330
14:00+9з2344100 0.0 10121274
17:00+7зсз3669100 0.3 1013885
20:00+5юз2293100 1.2 101262
7 мая, пт
пт723:00+6зсз2595100 1.1 1012273
02:00+6зсз2997100 4.7 1011623
05:00+5сз4994100 3.3 1012942
08:00+2зсз3892100 4.7 1015550
11:00+3з2389100 0.5 1014305
14:00+5з1278100 0.5 1013479
17:00+6з017097 0.0 1012380
20:00+6ююз118199 0.2 101228
8 мая, сб
сб823:00+4ю218784 0.0 101225
02:00+3юв2490100 0.0 101097
05:00+3вюв2488100 0.0 1010108
08:00+3с1195100 2.1 101395
11:00+5всв129397 1.1 1013282
14:00+11с3772100 1.3 10111341
17:00+10сз3574100 1.3 1012751
20:00+8зюз279090 2.5 1014262
9 мая, вс
вс923:00+7з4108795 0.1 1015436
02:00+5зюз2494100 0.1 101593
05:00+4юз1192100 0.0 101413
08:00+7юв238183 0.0 1014229
11:00+13юв23545 0.0 10101217
14:00+17всв223471 0.0 10082598
17:00+9зсз6979100 1.4 1010530
20:00+6зсз51194100 10.3 1013738
10 мая, пн
пн1023:00+3зсз61498100 12.9 1017805
02:00+3сз61397100 22.3 1017864
05:00+2сз51397100 2.6 1019753
08:00+2сз41297100 4.8 1020683
11:00+3сз41197100 1.0 1021636
14:00+5сз4788100 1.4 1021793
17:00+7ссз347972 0.1 1020826
20:00+5св118718 0.2 102011